Weather in Santo Andre

Brazil     23°44′09″S   46°29′47″W
temp.,
°C
wind,
m/s
gust,
m/s
humid.,
%
clouds,
%
prec.,
mm/h
press.,
hPa
HPBL,
m
17 april, sat
sat1700:00+18nne117899 0.0 101535
03:00+17n2385100 0.0 101469
06:00+17n238799 0.0 101472
09:00+20nnw2467100 0.0 1016355
12:00+25wnw235399 0.5 10141179
15:00+19n2486100 4.5 1014231
18:00+19e2488100 1.1 1013113
21:00+19nne2486100 2.7 1014145
18 april, sun
sun1800:00+19n248699 0.4 1014135
03:00+18nnw118996 0.5 101319
06:00+17nw11915 0.0 101318
09:00+20wsw127826 0.0 1015545
12:00+21ssw3375100 1.1 1014791
15:00+20s348778 4.3 1013580
18:00+18s489560 1.4 1014462
21:00+17s389782 2.0 1016457
19 april, mon
mon1900:00+17ssw389645 0.3 1015443
03:00+16sw279673 0.4 1014396
06:00+16ssw289581 0.3 1015465
09:00+17ssw499349 0.8 1016655
12:00+21s687138 0.3 10161204
15:00+21s696418 0.5 10151280
18:00+17ssw499048 0.3 1016570
21:00+16s499390 0.7 1017544
20 april, tue
tue2000:00+16s269369 0.4 1017374
03:00+16sw249345 0.5 1015298
06:00+15sw259552 0.1 1016295
09:00+18s478551 0.3 1017647
12:00+21s676225 0.3 10171335
15:00+20s577362 0.8 10161063
18:00+17s499072 0.9 1017606
21:00+16s379789 1.5 1018416
21 april, wed
wed2100:00+16s3597100 0.4 1018346
03:00+16s2598100 0.8 1016271
06:00+16s259899 0.3 1016291
09:00+16sse249593 0.6 1018311
12:00+18sse358551 0.8 1017598
15:00+19sse457734 1.4 1015776
18:00+16sse348822 0.1 1016326
21:00+16sse239347 0.1 1018268